Terminal Aerodrome Forecast
Issued by NWS

Home | Current Version | Previous Version | Graphics & Text | Print | Product List | Glossary On
Versions: 1 2 3 4 5 6 7 8 9 10 11 12 13 14 15 16 17 18 19 20 21 22 23 24 25 26 27 28 29 30 31 32 33 34 35 36 37 38 39 40 41 42 43 44 45 46 47 48 49 50
000
FTUS43 KLOT 211700
TAFGYY
TAF
KGYY 211737Z 2118/2218 17008KT P6SM FEW150 SCT250
     FM220200 18012KT P6SM BKN050
     FM220400 19011KT P6SM OVC035
     FM220700 20012KT P6SM -FZDZ OVC015 WS020/22040KT
      TEMPO 2209/2212 3SM -FZRA BR OVC008
     FM221400 21011KT 6SM BR VCSH BKN010 OVC015
     FM221700 21012KT P6SM SCT012 BKN019=

USA.gov is the U.S. government's official web portal to all federal, state and local government web resources and services.